Cairo, IL

9:16 PM CST on December 11, 2019 (GMT -0600)
Cairo Regional

Weather History for KCIR - October, 2019

Change the Weather History Date:

Tuesday, October 8, 2019

  Actual Average Record
Temperature  
Mean Temperature 58 °F -  
Max Temperature 73 °F 74 °F 91 °F (2007)
Min Temperature 43 °F 53 °F 35 °F (1988)
Degree Days  
Heating Degree Days 7    
Growing Degree Days 8 (Base 50)    
Moisture  
Dew Point 46 °F    
Average Humidity 73    
Maximum Humidity 100    
Minimum Humidity 31    
Precipitation  
Precipitation 0.00 in - - ()
Sea Level Pressure  
Sea Level Pressure 30.15 in    
Wind  
Wind Speed 3 mph ()    
Max Wind Speed 13 mph    
Max Gust Speed 20 mph    
Visibility 9.0 miles    
Events Fog    
Averages and records for this station are not official NWS values.
T = Trace of Precipitation, MM = Missing Value Source: Averaged Metar Reports

Daily Weather History Graph

Daily Weather History Graph

Search for Another Location

Airport or City:

Astronomy

Oct. 08, 2019 Rise Set
Actual Time 6:58 AM CDT 6:30 PM CDT
Civil Twilight 6:32 AM CDT 6:56 PM CDT
Nautical Twilight 6:02 AM CDT 7:26 PM CDT
Astronomical Twilight 5:31 AM CDT 7:56 PM CDT
Moon 4:20 PM CDT (10/8) 1:56 AM CDT (10/8)
Length of Visible Light 12h 24m
Length of Day
11h 32m
Waxing Gibbous, 78% of the Moon is Illuminated
Oct 8
Waxing Gibbous
Oct 13
Full
Oct 21
Last Quarter
Oct 27
New
Nov 4
First Quarter

Hourly Weather History & Observations

Time (CDT) Temp. Dew Point Humidity Pressure Visibility Wind Dir Wind Speed Gust Speed Precip Events Conditions
12:15 AM 47.7 °F 47.5 °F 99% 30.19 in 10.0 mi Calm Calm - N/A   Clear
12:35 AM 47.5 °F 47.1 °F 99% 30.19 in 10.0 mi Calm Calm - N/A   Clear
12:55 AM 47.5 °F 47.5 °F 100% 30.19 in 10.0 mi Calm Calm - N/A   Clear
1:15 AM 47.3 °F 47.3 °F 100% 30.19 in 10.0 mi Calm Calm - N/A   Clear
1:35 AM 47.3 °F 47.3 °F 100% 30.19 in 5.0 mi Calm Calm - N/A   Clear
1:55 AM 46.4 °F 46.2 °F 99% 30.18 in 10.0 mi Calm Calm - N/A   Clear
2:15 AM 46.4 °F 46.4 °F 100% 30.18 in 10.0 mi Calm Calm - N/A   Clear
2:35 AM 46.4 °F 46.4 °F 100% 30.18 in 10.0 mi Calm Calm - N/A   Clear
2:55 AM 46.6 °F 46.6 °F 100% 30.18 in 10.0 mi Calm Calm - N/A   Clear
3:15 AM 46.0 °F 46.0 °F 100% 30.18 in 7.0 mi Calm Calm - N/A   Clear
3:35 AM 46.0 °F 46.0 °F 100% 30.18 in 10.0 mi Calm Calm - N/A   Clear
3:55 AM 45.5 °F 45.5 °F 100% 30.18 in 10.0 mi Calm Calm - N/A   Clear
4:15 AM 46.2 °F 46.2 °F 100% 30.18 in 10.0 mi Calm Calm - N/A   Clear
4:35 AM 45.0 °F 45.0 °F 100% 30.18 in 0.2 mi Calm Calm - N/A Fog Fog
4:55 AM 43.5 °F 43.5 °F 100% 30.19 in 10.0 mi Calm Calm - N/A   Clear
5:15 AM 44.1 °F 44.1 °F 100% 30.19 in 10.0 mi Calm Calm - N/A   Clear
5:35 AM 44.6 °F 44.6 °F 100% 30.19 in 10.0 mi Calm Calm - N/A   Clear
5:55 AM 44.6 °F 44.6 °F 100% 30.19 in 2.5 mi Calm Calm - N/A   Clear
6:15 AM 44.2 °F 44.2 °F 100% 30.19 in 10.0 mi Calm Calm - N/A   Clear
6:55 AM 44.8 °F 44.8 °F 100% 30.19 in 10.0 mi Calm Calm - N/A   Clear
7:15 AM 44.6 °F 44.6 °F 100% 30.20 in 10.0 mi Calm Calm - N/A   Clear
7:35 AM 45.0 °F 45.0 °F 100% 30.20 in 10.0 mi Calm Calm - N/A   Clear
7:55 AM 47.3 °F 47.3 °F 100% 30.20 in 10.0 mi Calm Calm - N/A   Clear
8:15 AM 49.5 °F 49.5 °F 100% 30.20 in 10.0 mi Calm Calm - N/A   Clear
8:35 AM 52.0 °F 50.4 °F 94% 30.21 in 7.0 mi North 4.6 mph - N/A   Clear
8:55 AM 54.9 °F 51.6 °F 89% 30.20 in 5.0 mi North 3.5 mph - N/A   Clear
9:15 AM 57.7 °F 52.7 °F 83% 30.20 in 4.0 mi NE 8.1 mph - N/A   Haze
9:35 AM 59.4 °F 52.2 °F 77% 30.21 in 4.0 mi NE 6.9 mph - N/A   Haze
9:55 AM 61.5 °F 52.7 °F 73% 30.21 in 4.0 mi NE 6.9 mph - N/A   Haze
10:15 AM 63.3 °F 50.7 °F 63% 30.21 in 5.0 mi NE 8.1 mph - N/A   Haze
10:35 AM 65.1 °F 47.3 °F 52% 30.21 in 7.0 mi ENE 11.5 mph 16.1 mph N/A   Clear
10:55 AM 66.2 °F 46.8 °F 50% 30.21 in 7.0 mi NE 11.5 mph - N/A   Clear
11:15 AM 67.1 °F 46.4 °F 47% 30.20 in 7.0 mi NE 9.2 mph - N/A   Clear
11:35 AM 67.8 °F 44.4 °F 43% 30.19 in 7.0 mi NE 10.4 mph 17.3 mph N/A   Clear
11:55 AM 68.5 °F 45.0 °F 43% 30.18 in 10.0 mi NNE 11.5 mph - N/A   Clear
12:15 PM 70.2 °F 46.0 °F 42% 30.18 in 10.0 mi NE 8.1 mph - N/A   Clear
12:35 PM 70.9 °F 44.8 °F 39% 30.17 in 10.0 mi ENE 11.5 mph 19.6 mph N/A   Clear
12:55 PM 71.4 °F 44.1 °F 37% 30.16 in 10.0 mi NE 11.5 mph - N/A   Clear
1:15 PM 71.8 °F 43.5 °F 36% 30.15 in 10.0 mi NNE 12.7 mph - N/A   Clear
1:35 PM 72.9 °F 43.9 °F 35% 30.14 in 10.0 mi ENE 9.2 mph - N/A   Clear
1:55 PM 73.2 °F 43.2 °F 34% 30.13 in 10.0 mi NE 8.1 mph 16.1 mph N/A   Clear
2:15 PM 72.9 °F 43.0 °F 34% 30.12 in 10.0 mi NE 9.2 mph - N/A   Clear
2:35 PM 73.4 °F 43.0 °F 34% 30.12 in 10.0 mi NE 11.5 mph - N/A   Clear
2:55 PM 72.9 °F 42.8 °F 34% 30.11 in 10.0 mi NNE 9.2 mph - N/A   Clear
3:15 PM 73.6 °F 43.0 °F 33% 30.11 in 10.0 mi NNE 8.1 mph - N/A   Clear
3:35 PM 73.4 °F 42.8 °F 33% 30.10 in 10.0 mi NE 10.4 mph - N/A   Clear
3:55 PM 73.9 °F 42.4 °F 32% 30.10 in 10.0 mi NE 8.1 mph - N/A   Clear
4:15 PM 73.6 °F 41.7 °F 32% 30.10 in 10.0 mi NE 10.4 mph - N/A   Clear
4:35 PM 73.4 °F 41.2 °F 31% 30.09 in 10.0 mi NE 11.5 mph - N/A   Clear
4:55 PM 73.0 °F 40.6 °F 31% 30.09 in 10.0 mi NE 6.9 mph - N/A   Clear
5:15 PM 72.5 °F 42.1 °F 33% 30.09 in 10.0 mi NE 9.2 mph - N/A   Clear
5:35 PM 71.6 °F 42.3 °F 35% 30.09 in 10.0 mi NE 6.9 mph - N/A   Clear
5:55 PM 70.0 °F 43.7 °F 39% 30.09 in 10.0 mi NNE 4.6 mph - N/A   Clear
6:15 PM 67.5 °F 45.0 °F 44% 30.09 in 10.0 mi Calm Calm - N/A   Clear
6:35 PM 61.9 °F 47.3 °F 59% 30.09 in 10.0 mi Calm Calm - N/A   Clear
6:55 PM 59.4 °F 47.8 °F 66% 30.09 in 10.0 mi Calm Calm - N/A   Clear
7:15 PM 58.6 °F 48.2 °F 68% 30.09 in 10.0 mi Calm Calm - N/A   Clear
7:35 PM 56.3 °F 47.8 °F 73% 30.10 in 10.0 mi Calm Calm - N/A   Clear
7:55 PM 56.1 °F 47.5 °F 73% 30.10 in 10.0 mi Calm Calm - N/A   Clear
8:15 PM 54.3 °F 48.2 °F 80% 30.10 in 10.0 mi Calm Calm - N/A   Clear
8:35 PM 53.6 °F 48.9 °F 84% 30.10 in 10.0 mi Calm Calm - N/A   Clear
8:55 PM 52.0 °F 48.2 °F 87% 30.10 in 10.0 mi Calm Calm - N/A   Clear
9:15 PM 53.1 °F 48.6 °F 85% 30.10 in 10.0 mi Calm Calm - N/A   Clear
9:35 PM 50.7 °F 48.4 °F 92% 30.10 in 10.0 mi Calm Calm - N/A   Clear
9:55 PM 51.8 °F 48.7 °F 89% 30.10 in 10.0 mi Calm Calm - N/A   Clear
10:35 PM 49.6 °F 47.7 °F 93% 30.11 in 10.0 mi Calm Calm - N/A   Clear
10:55 PM 48.7 °F 47.1 °F 94% 30.11 in 10.0 mi Calm Calm - N/A   Clear
11:15 PM 48.6 °F 46.8 °F 93% 30.10 in 10.0 mi Calm Calm - N/A   Clear
11:35 PM 48.4 °F 46.9 °F 95% 30.10 in 10.0 mi Calm Calm - N/A   Clear
11:55 PM 47.3 °F 46.4 °F 97% 30.10 in 10.0 mi Calm Calm - N/A   Clear